Simultaneous Nadir Overpasses (SNOs) Predictions

Prediction of SNOs between NOAA-20 and PACE Satellite Orbit:

Table of predicted SNOs for the next 14.0 days since TLE Epoch: 1/10/2025
Index Date (NOAA-20) Time (NOAA-20) Lat,Lon (NOAA-20) SZA (NOAA-20 ) Date (PACE) Time (PACE) Lat,Lon (PACE) SZA (PACE ) Distance(km) Time Diff (sec)
1 01/11/2025 00:58:18 -79.81, -51.86 76.28 01/11/2025 00:58:52 -79.80, -51.76 76.31 2.10 34
2 01/11/2025 01:48:56 79.59, 117.41 103.34 01/11/2025 01:47:56 79.59, 117.49 103.36 1.69 60
3 01/13/2025 05:24:44 -79.76,-118.03 76.70 01/13/2025 05:24:49 -79.75,-117.90 76.72 2.59 5
4 01/15/2025 09:00:29 79.84, 7.28 103.10 01/15/2025 09:01:40 79.84, 7.24 103.07 0.70 71
5 01/15/2025 09:51:07 -79.62, 176.60 77.31 01/15/2025 09:50:43 -79.62, 176.58 77.30 0.42 24
6 01/17/2025 13:26:54 79.77, -58.68 102.57 01/17/2025 13:27:35 79.77, -58.70 102.55 0.44 41
7 01/17/2025 14:17:32 -79.55, 110.61 77.84 01/17/2025 14:16:38 -79.55, 110.60 77.81 0.30 54
8 01/19/2025 17:53:21 79.77,-125.25 102.13 01/19/2025 17:53:31 79.76,-125.10 102.10 3.09 10
9 01/21/2025 21:29:07 -79.88, -0.26 78.13 01/21/2025 21:30:20 -79.87, -0.16 78.18 2.01 73
10 01/21/2025 22:19:46 79.70, 168.72 101.55 01/21/2025 22:19:25 79.70, 168.87 101.54 3.01 21
11 01/24/2025 01:55:30 -79.76, -65.74 78.84 01/24/2025 01:56:12 -79.77, -65.82 78.85 1.75 42



Historial Predications of SNOs between NOAA-20 and PACE
